Hourly Data Report for January 19, 2022

RANKIN INLET A
NUNAVUT
Current Station Operator: NAVCAN

62°48'38.000" N
92°06'53.000" W
32.30 m
2303405
71083
YRT

Download Data

Hourly Data (January 2022)
Hourly Data Report for January 19, 2022
TIME
LST
Temp Definition
°C
Dew Point Definition
°C
Rel Hum Definition
%
Precip. Amount Definition
mm

Wind Dir Definition
10's deg

Wind Spd Definition
km/h
Visibility Definition
km
Stn Press Definition
kPa
Hmdx Definition


Wind Chill Definition


Weather Definition


00:00 -31.5 -35.6 68   35 44 0.8 100.94   -50 Ice Crystals,Blowing Snow
01:00 -31.2 -35.3 68   34 48 0.8 100.99   -50 Ice Crystals,Blowing Snow
02:00 -31.5 -35.6 68   33 49 0.8 101.02   -51 Ice Crystals,Blowing Snow
03:00 -31.1 -35.2 68   34 34 1.2 101.13   -48 Ice Crystals,Blowing Snow
04:00 -30.8 -34.9 68   34 30 1.0 101.16   -47 Ice Crystals,Blowing Snow
05:00 -30.7 -34.7 68   34 45 0.6 101.06   -49 Ice Crystals,Blowing Snow
06:00 -30.5 -34.6 68   34 50 0.8 101.07   -50 Ice Crystals,Blowing Snow
07:00 -30.3 -34.3 69   34 63 0.2 100.96   -51 Ice Crystals,Blowing Snow
08:00 -29.9 -33.9 69   34 54 0.4 101.03   -49 Ice Crystals,Blowing Snow
09:00 -29.4 -33.4 69   34 56 0.2 101.00   -49 Ice Crystals,Blowing Snow
10:00 -28.9 -32.9 69   33 49 0.2 101.04   -47 Ice Crystals,Blowing Snow
11:00 -28.1 -32.0 70   33 56 0.2 101.03   -47 Ice Crystals,Blowing Snow
12:00 -27.4 -31.3 70   33 56 0.2 100.99   -46 Ice Crystals,Blowing Snow
13:00 -27.1 -30.9 70   33 45 0.4 101.03   -44 Ice Crystals,Blowing Snow
14:00 -26.5 -30.3 71   33 50 0.2 100.97   -44 Ice Crystals,Blowing Snow
15:00 -26.9 -30.7 71   32 52 0.4 100.97   -45 Ice Crystals,Blowing Snow
16:00 -27.1 -30.9 71   32 42 0.4 101.02   -44 Ice Crystals,Blowing Snow
17:00 -27.3 -31.2 71   32 45 0.4 101.00   -45 Ice Crystals,Blowing Snow
18:00 -27.6 -31.5 70   32 50 0.4 100.99   -46 Ice Crystals,Blowing Snow
19:00 -27.9 -31.8 70   33 36 0.8 101.00   -44 Ice Crystals,Blowing Snow
20:00 -27.8 -31.7 70   32 48 0.6 100.90   -46 Ice Crystals,Blowing Snow
21:00 -28.1 -31.9 70   32 41 1.2 100.86   -45 Ice Crystals,Blowing Snow
22:00 -27.8 -31.7 70   31 27 1.0 100.86   -42 Ice Crystals,Blowing Snow
23:00 -28.1 -31.9 70   31 36 0.8 100.79   -44 Ice Crystals,Blowing Snow

Notes on Data Quality.

Legend

  • E = Estimated
  • M = Missing
  • NA = Not Available*
  • [empty] = Indicates an unobserved value
Date modified: